| time (UTC) | temp C | wind direction | speed KPH | gust KPH | rain 1hr cm | rain 24hr cm | rain mn cm | humidity % | barometer mb |
| 20260510140503 | 12 | 285 | 1.6 | 8.0 | 0.00 | 0.00 | 0.00 | 64 | 1016.3 |
| 20260510140002 | 12 | 198 | 6.4 | 11.3 | 0.00 | 0.00 | 0.00 | 63 | 1016.4 |
| 20260510135502 | 12 | 167 | 6.4 | 16.1 | 0.00 | 0.00 | 0.00 | 63 | 1016.5 |
| 20260510135002 | 12 | 203 | 4.8 | 8.0 | 0.00 | 0.00 | 0.00 | 63 | 1016.3 |
| 20260510134502 | 12 | 40 | 4.8 | 11.3 | 0.00 | 0.00 | 0.00 | 62 | 1016.3 |
| 20260510134002 | 12 | 6 | 4.8 | 9.7 | 0.00 | 0.00 | 0.00 | 62 | 1016.2 |
| 20260510133502 | 12 | 101 | 9.7 | 20.9 | 0.00 | 0.00 | 0.00 | 61 | 1016.2 |
| 20260510133003 | 12 | 30 | 8.0 | 11.3 | 0.00 | 0.00 | 0.00 | 62 | 1016.3 |
| 20260510132502 | 12 | 156 | 6.4 | 16.1 | 0.00 | 0.00 | 0.00 | 62 | 1016.5 |
| 20260510132002 | 12 | 32 | 4.8 | 9.7 | 0.00 | 0.00 | 0.00 | 62 | 1016.4 |
| 20260510131502 | 12 | 64 | 6.4 | 8.0 | 0.00 | 0.00 | 0.00 | 62 | 1016.3 |
| 20260510131002 | 12 | 87 | 6.4 | 17.7 | 0.00 | 0.00 | 0.00 | 63 | 1016.4 |
| 20260510130502 | 12 | 141 | 6.4 | 9.7 | 0.00 | 0.00 | 0.00 | 63 | 1016.4 |
| 20260510130002 | 12 | 56 | 4.8 | 8.0 | 0.00 | 0.00 | 0.00 | 63 | 1016.5 |
| 20260510125502 | 12 | 63 | 12.9 | 17.7 | 0.00 | 0.00 | 0.00 | 64 | 1016.8 |
| 20260510125002 | 12 | 110 | 3.2 | 9.7 | 0.00 | 0.00 | 0.00 | 65 | 1016.6 |
| 20260510124502 | 12 | 313 | 4.8 | 16.1 | 0.00 | 0.00 | 0.00 | 63 | 1016.7 |
| 20260510124002 | 12 | 109 | 8.0 | 14.5 | 0.00 | 0.00 | 0.00 | 64 | 1017.0 |
| 20260510123502 | 12 | 60 | 4.8 | 16.1 | 0.00 | 0.00 | 0.00 | 62 | 1017.0 |
| 20260510123003 | 13 | 119 | 9.7 | 14.5 | 0.00 | 0.00 | 0.00 | 62 | 1017.1 |
| 20260510122502 | 13 | 46 | 6.4 | 8.0 | 0.00 | 0.00 | 0.00 | 61 | 1017.0 |
| 20260510122002 | 13 | 53 | 8.0 | 9.7 | 0.00 | 0.00 | 0.00 | 61 | 1016.7 |
| 20260510121502 | 13 | 107 | 4.8 | 8.0 | 0.00 | 0.00 | 0.00 | 62 | 1016.8 |
| 20260510121002 | 13 | 43 | 9.7 | 19.3 | 0.00 | 0.00 | 0.00 | 61 | 1016.8 |
| 20260510120502 | 13 | 284 | 4.8 | 9.7 | 0.00 | 0.00 | 0.00 | 62 | 1017.1 |
| 20260510120002 | 13 | 160 | 3.2 | 11.3 | 0.00 | 0.00 | 0.00 | 62 | 1017.1 |
| 20260510115502 | 13 | 83 | 8.0 | 14.5 | 0.00 | 0.00 | 0.00 | 61 | 1017.1 |
| 20260510115002 | 13 | 61 | 4.8 | 14.5 | 0.00 | 0.00 | 0.00 | 61 | 1017.1 |
| 20260510114502 | 13 | 67 | 8.0 | 16.1 | 0.00 | 0.00 | 0.00 | 61 | 1017.1 |
| 20260510114002 | 13 | 39 | 4.8 | 11.3 | 0.00 | 0.00 | 0.00 | 61 | 1017.2 |
| 20260510113502 | 13 | 121 | 3.2 | 14.5 | 0.00 | 0.00 | 0.00 | 61 | 1017.0 |
| 20260510113002 | 13 | 143 | 4.8 | 11.3 | 0.00 | 0.00 | 0.00 | 61 | 1017.0 |
| 20260510112502 | 13 | 36 | 1.6 | 9.7 | 0.00 | 0.00 | 0.00 | 61 | 1017.3 |
| 20260510112002 | 13 | 319 | 4.8 | 19.3 | 0.00 | 0.00 | 0.00 | 61 | 1017.2 |
| 20260510111502 | 13 | 28 | 6.4 | 9.7 | 0.00 | 0.00 | 0.00 | 60 | 1017.5 |
| 20260510111002 | 13 | 315 | 4.8 | 16.1 | 0.00 | 0.00 | 0.00 | 60 | 1017.3 |
| 20260510110502 | 13 | 141 | 4.8 | 8.0 | 0.00 | 0.00 | 0.00 | 62 | 1017.4 |
| 20260510110002 | 13 | 53 | 1.6 | 8.0 | 0.00 | 0.00 | 0.00 | 63 | 1017.5 |
| 20260510105502 | 13 | 52 | 4.8 | 8.0 | 0.00 | 0.00 | 0.00 | 63 | 1017.5 |
| 20260510105002 | 12 | 7 | 4.8 | 9.7 | 0.00 | 0.00 | 0.00 | 63 | 1017.5 |
| 20260510104502 | 12 | 233 | 3.2 | 14.5 | 0.00 | 0.00 | 0.00 | 64 | 1017.5 |
| 20260510104002 | 13 | 53 | 4.8 | 11.3 | 0.00 | 0.00 | 0.00 | 63 | 1017.8 |
| 20260510103502 | 13 | 137 | 6.4 | 14.5 | 0.00 | 0.00 | 0.00 | 63 | 1017.6 |
| 20260510103002 | 13 | 304 | 1.6 | 8.0 | 0.00 | 0.00 | 0.00 | 64 | 1017.5 |
| 20260510102502 | 12 | 40 | 4.8 | 9.7 | 0.00 | 0.00 | 0.00 | 64 | 1017.5 |
| 20260510102002 | 12 | 42 | 4.8 | 11.3 | 0.00 | 0.00 | 0.00 | 64 | 1017.8 |
| 20260510101502 | 12 | 22 | 6.4 | 9.7 | 0.00 | 0.00 | 0.00 | 64 | 1017.6 |
| 20260510101002 | 12 | 321 | 1.6 | 8.0 | 0.00 | 0.00 | 0.00 | 64 | 1017.6 |
| 20260510100502 | 12 | 45 | 6.4 | 8.0 | 0.00 | 0.00 | 0.00 | 65 | 1017.3 |
| 20260510100002 | 12 | 14 | 3.2 | 8.0 | 0.00 | 0.00 | 0.00 | 65 | 1017.2 |
| 20260510095502 | 12 | 356 | 6.4 | 9.7 | 0.00 | 0.00 | 0.00 | 65 | 1017.4 |
| 20260510095002 | 12 | 166 | 4.8 | 9.7 | 0.00 | 0.00 | 0.00 | 64 | 1017.6 |
| 20260510094502 | 12 | 350 | 6.4 | 11.3 | 0.00 | 0.00 | 0.00 | 64 | 1017.7 |
| 20260510094002 | 12 | 219 | 3.2 | 9.7 | 0.00 | 0.00 | 0.00 | 65 | 1017.8 |
| 20260510093502 | 12 | 192 | 8.0 | 9.7 | 0.00 | 0.00 | 0.00 | 65 | 1017.6 |
| 20260510093002 | 12 | 128 | 11.3 | 14.5 | 0.00 | 0.00 | 0.00 | 64 | 1017.8 |
| 20260510092502 | 12 | 327 | 6.4 | 14.5 | 0.00 | 0.00 | 0.00 | 65 | 1017.8 |
| 20260510092002 | 12 | 103 | 3.2 | 16.1 | 0.00 | 0.00 | 0.00 | 64 | 1017.8 |
| 20260510091502 | 12 | 275 | 1.6 | 11.3 | 0.00 | 0.00 | 0.00 | 65 | 1017.5 |
| 20260510091002 | 12 | 254 | 4.8 | 11.3 | 0.00 | 0.00 | 0.00 | 66 | 1017.6 |
| 20260510090502 | 12 | 30 | 1.6 | 14.5 | 0.00 | 0.00 | 0.00 | 67 | 1017.8 |
| 20260510090002 | 12 | 347 | 4.8 | 9.7 | 0.00 | 0.00 | 0.00 | 68 | 1017.6 |
| 20260510085502 | 12 | 19 | 11.3 | 16.1 | 0.00 | 0.00 | 0.00 | 67 | 1018.0 |
| 20260510085002 | 12 | 342 | 4.8 | 9.7 | 0.00 | 0.00 | 0.00 | 68 | 1017.9 |
| 20260510084502 | 12 | 78 | 4.8 | 9.7 | 0.00 | 0.00 | 0.00 | 68 | 1017.9 |
| 20260510084002 | 12 | 59 | 6.4 | 9.7 | 0.00 | 0.00 | 0.00 | 68 | 1018.0 |
| 20260510083502 | 12 | 332 | 3.2 | 14.5 | 0.00 | 0.00 | 0.00 | 69 | 1017.9 |
| 20260510083002 | 11 | 106 | 3.2 | 6.4 | 0.00 | 0.00 | 0.00 | 70 | 1018.1 |
| 20260510082503 | 11 | 30 | 6.4 | 9.7 | 0.00 | 0.00 | 0.00 | 70 | 1018.0 |
| 20260510082003 | 11 | 27 | 6.4 | 14.5 | 0.00 | 0.00 | 0.00 | 70 | 1018.0 |
| 20260510081502 | 11 | 225 | 1.6 | 14.5 | 0.00 | 0.00 | 0.00 | 70 | 1018.0 |
| 20260510081003 | 11 | 306 | 1.6 | 4.8 | 0.00 | 0.00 | 0.00 | 71 | 1018.0 |
| 20260510080502 | 11 | 32 | 8.0 | 11.3 | 0.00 | 0.00 | 0.00 | 70 | 1018.2 |
| 20260510080002 | 11 | 293 | 1.6 | 9.7 | 0.00 | 0.00 | 0.00 | 72 | 1017.9 |
| 20260510075502 | 11 | 26 | 6.4 | 17.7 | 0.00 | 0.00 | 0.00 | 72 | 1018.0 |
| 20260510075002 | 11 | 46 | 4.8 | 14.5 | 0.00 | 0.00 | 0.00 | 73 | 1018.0 |
| 20260510074502 | 11 | 30 | 8.0 | 9.7 | 0.00 | 0.00 | 0.00 | 73 | 1018.0 |
| 20260510074002 | 11 | 125 | 4.8 | 6.4 | 0.00 | 0.00 | 0.00 | 73 | 1018.0 |
| 20260510073502 | 11 | 65 | 4.8 | 11.3 | 0.00 | 0.00 | 0.00 | 73 | 1018.0 |
| 20260510073002 | 11 | 73 | 8.0 | 11.3 | 0.00 | 0.00 | 0.00 | 73 | 1018.0 |
| 20260510072502 | 11 | 49 | 4.8 | 9.7 | 0.00 | 0.00 | 0.00 | 74 | 1018.0 |
| 20260510072002 | 11 | 317 | 4.8 | 11.3 | 0.00 | 0.00 | 0.00 | 74 | 1018.1 |
| 20260510071502 | 11 | 325 | 1.6 | 9.7 | 0.00 | 0.00 | 0.00 | 74 | 1018.0 |
| 20260510071002 | 11 | 31 | 3.2 | 14.5 | 0.00 | 0.00 | 0.00 | 74 | 1017.9 |
| 20260510070502 | 11 | 357 | 1.6 | 11.3 | 0.00 | 0.00 | 0.00 | 75 | 1018.0 |
| 20260510070002 | 10 | 19 | 4.8 | 11.3 | 0.00 | 0.00 | 0.00 | 75 | 1018.0 |
| 20260510065502 | 10 | 302 | 1.6 | 9.7 | 0.00 | 0.00 | 0.00 | 75 | 1018.0 |
| 20260510065002 | 10 | 346 | 1.6 | 11.3 | 0.00 | 0.00 | 0.00 | 75 | 1017.9 |
| 20260510064502 | 10 | 330 | 6.4 | 16.1 | 0.00 | 0.00 | 0.00 | 75 | 1017.8 |
| 20260510064002 | 10 | 352 | 4.8 | 16.1 | 0.00 | 0.00 | 0.00 | 76 | 1018.0 |
| 20260510063502 | 10 | 33 | 1.6 | 9.7 | 0.00 | 0.00 | 0.00 | 75 | 1018.0 |
| 20260510063002 | 10 | 225 | 1.6 | 9.7 | 0.00 | 0.00 | 0.00 | 76 | 1017.9 |
| 20260510062502 | 10 | 64 | 4.8 | 6.4 | 0.00 | 0.00 | 0.00 | 77 | 1018.0 |
| 20260510062002 | 10 | 18 | 6.4 | 9.7 | 0.00 | 0.00 | 0.00 | 76 | 1017.9 |
| 20260510061502 | 10 | 108 | 4.8 | 11.3 | 0.00 | 0.00 | 0.00 | 76 | 1017.8 |
| 20260510061002 | 10 | 288 | 3.2 | 8.0 | 0.00 | 0.00 | 0.00 | 76 | 1017.9 |
| 20260510060502 | 10 | 61 | 4.8 | 9.7 | 0.00 | 0.00 | 0.00 | 76 | 1017.9 |
| 20260510060002 | 10 | 59 | 8.0 | 11.3 | 0.00 | 0.00 | 0.00 | 76 | 1017.8 |
| 20260510055502 | 10 | 316 | 6.4 | 14.5 | 0.00 | 0.00 | 0.00 | 76 | 1017.7 |
| 20260510055002 | 10 | 0 | 4.8 | 11.3 | 0.00 | 0.00 | 0.00 | 76 | 1017.7 |
| 20260510054502 | 10 | 103 | 4.8 | 11.3 | 0.00 | 0.00 | 0.00 | 76 | 1017.6 |
| 20260510054002 | 10 | 44 | 3.2 | 11.3 | 0.00 | 0.00 | 0.00 | 77 | 1017.7 |
| 20260510053502 | 10 | 310 | 3.2 | 6.4 | 0.00 | 0.00 | 0.00 | 77 | 1017.7 |
| 20260510053002 | 10 | 310 | 1.6 | 6.4 | 0.00 | 0.00 | 0.00 | 77 | 1017.6 |
| 20260510052502 | 10 | 74 | 1.6 | 9.7 | 0.00 | 0.00 | 0.00 | 77 | 1017.8 |
| 20260510052002 | 10 | 63 | 4.8 | 11.3 | 0.00 | 0.00 | 0.00 | 78 | 1017.5 |
| 20260510051502 | 10 | 43 | 3.2 | 6.4 | 0.00 | 0.00 | 0.00 | 79 | 1017.8 |
| 20260510051002 | 10 | 347 | 1.6 | 8.0 | 0.00 | 0.00 | 0.00 | 79 | 1017.7 |
| 20260510050502 | 10 | 61 | 1.6 | 6.4 | 0.00 | 0.00 | 0.00 | 79 | 1017.8 |
| 20260510050002 | 10 | 204 | 3.2 | 8.0 | 0.00 | 0.00 | 0.00 | 80 | 1017.6 |
| 20260510045502 | 10 | 28 | 3.2 | 8.0 | 0.00 | 0.00 | 0.00 | 81 | 1017.5 |
| 20260510045002 | 10 | 26 | 4.8 | 9.7 | 0.00 | 0.00 | 0.00 | 81 | 1017.5 |
| 20260510044502 | 10 | 322 | 1.6 | 8.0 | 0.00 | 0.00 | 0.00 | 82 | 1017.6 |
| 20260510044003 | 10 | 356 | 3.2 | 4.8 | 0.00 | 0.00 | 0.00 | 82 | 1017.7 |
| 20260510043502 | 10 | 224 | 0.0 | 3.2 | 0.00 | 0.00 | 0.00 | 82 | 1017.7 |
| 20260510043002 | 10 | 291 | 0.0 | 3.2 | 0.00 | 0.00 | 0.00 | 82 | 1017.8 |
| 20260510042502 | 10 | 23 | 3.2 | 4.8 | 0.00 | 0.00 | 0.00 | 82 | 1017.7 |
| 20260510042002 | 10 | 313 | 1.6 | 11.3 | 0.00 | 0.00 | 0.00 | 82 | 1017.8 |
| 20260510041502 | 10 | 58 | 1.6 | 8.0 | 0.00 | 0.00 | 0.00 | 82 | 1018.0 |
| 20260510041002 | 10 | 289 | 3.2 | 8.0 | 0.00 | 0.00 | 0.00 | 82 | 1017.7 |
| 20260510040502 | 10 | 240 | 1.6 | 3.2 | 0.00 | 0.00 | 0.00 | 82 | 1017.8 |
| 20260510040002 | 10 | 279 | 1.6 | 3.2 | 0.00 | 0.00 | 0.00 | 82 | 1017.9 |
| 20260510035502 | 10 | 329 | 1.6 | 6.4 | 0.00 | 0.00 | 0.00 | 82 | 1017.8 |
| 20260510035002 | 10 | 320 | 1.6 | 4.8 | 0.00 | 0.00 | 0.00 | 82 | 1018.0 |
| 20260510034502 | 10 | 227 | 1.6 | 4.8 | 0.00 | 0.00 | 0.00 | 82 | 1017.9 |
| 20260510034002 | 10 | 304 | 0.0 | 4.8 | 0.00 | 0.00 | 0.00 | 81 | 1018.1 |
| 20260510033502 | 10 | 320 | 1.6 | 6.4 | 0.00 | 0.00 | 0.00 | 81 | 1017.9 |
| 20260510033002 | 10 | 19 | 4.8 | 9.7 | 0.00 | 0.00 | 0.00 | 81 | 1018.0 |
| 20260510032502 | 10 | 52 | 4.8 | 8.0 | 0.00 | 0.00 | 0.00 | 81 | 1018.1 |
| 20260510032002 | 10 | 174 | 3.2 | 11.3 | 0.00 | 0.00 | 0.00 | 81 | 1018.0 |
| 20260510031502 | 10 | 332 | 1.6 | 11.3 | 0.00 | 0.00 | 0.00 | 81 | 1018.0 |
| 20260510031002 | 10 | 336 | 1.6 | 6.4 | 0.00 | 0.00 | 0.00 | 81 | 1018.0 |
| 20260510030502 | 10 | 332 | 1.6 | 8.0 | 0.00 | 0.00 | 0.00 | 81 | 1018.0 |
| 20260510030002 | 10 | 284 | 1.6 | 6.4 | 0.00 | 0.00 | 0.00 | 81 | 1018.1 |
| 20260510025502 | 10 | 24 | 3.2 | 8.0 | 0.00 | 0.00 | 0.00 | 81 | 1018.0 |
| 20260510025003 | 10 | 323 | 1.6 | 3.2 | 0.00 | 0.00 | 0.00 | 81 | 1018.0 |
| 20260510024502 | 10 | 304 | 3.2 | 14.5 | 0.00 | 0.00 | 0.00 | 81 | 1018.0 |
| 20260510024003 | 10 | 337 | 4.8 | 9.7 | 0.00 | 0.00 | 0.00 | 81 | 1018.2 |
| 20260510023502 | 10 | 303 | 1.6 | 4.8 | 0.00 | 0.00 | 0.00 | 80 | 1018.1 |
| 20260510023002 | 10 | 283 | 0.0 | 8.0 | 0.00 | 0.00 | 0.00 | 80 | 1018.1 |
| 20260510022502 | 10 | 48 | 6.4 | 9.7 | 0.00 | 0.00 | 0.00 | 80 | 1018.0 |
| 20260510022002 | 10 | 73 | 4.8 | 8.0 | 0.00 | 0.00 | 0.00 | 79 | 1018.0 |
| 20260510021502 | 10 | 60 | 3.2 | 17.7 | 0.00 | 0.00 | 0.00 | 78 | 1018.1 |
| 20260510021002 | 10 | 238 | 1.6 | 4.8 | 0.00 | 0.00 | 0.00 | 76 | 1018.1 |
| 20260510020502 | 10 | 56 | 4.8 | 9.7 | 0.00 | 0.00 | 0.00 | 76 | 1018.1 |
| 20260510020002 | 10 | 275 | 3.2 | 8.0 | 0.00 | 0.00 | 0.00 | 75 | 1018.0 |
| 20260510015502 | 10 | 278 | 1.6 | 6.4 | 0.00 | 0.00 | 0.00 | 74 | 1018.0 |
| 20260510015002 | 10 | 50 | 1.6 | 11.3 | 0.00 | 0.00 | 0.00 | 73 | 1017.9 |
| 20260510014502 | 11 | 62 | 9.7 | 11.3 | 0.00 | 0.00 | 0.00 | 72 | 1018.0 |
| 20260510014002 | 11 | 31 | 6.4 | 14.5 | 0.00 | 0.00 | 0.00 | 71 | 1018.0 |
| 20260510013502 | 11 | 71 | 4.8 | 11.3 | 0.00 | 0.00 | 0.00 | 70 | 1018.0 |
| 20260510013002 | 11 | 323 | 1.6 | 6.4 | 0.00 | 0.00 | 0.00 | 70 | 1018.0 |
| 20260510012503 | 11 | 300 | 1.6 | 8.0 | 0.00 | 0.00 | 0.00 | 70 | 1018.1 |
| 20260510012003 | 11 | 351 | 1.6 | 4.8 | 0.00 | 0.00 | 0.00 | 70 | 1018.0 |
| 20260510011502 | 11 | 40 | 4.8 | 4.8 | 0.00 | 0.00 | 0.00 | 70 | 1018.0 |
| 20260510011002 | 11 | 23 | 4.8 | 6.4 | 0.00 | 0.00 | 0.00 | 70 | 1018.0 |
| 20260510010502 | 11 | 350 | 3.2 | 4.8 | 0.00 | 0.00 | 0.00 | 69 | 1018.1 |
| 20260510010003 | 11 | 333 | 4.8 | 9.7 | 0.00 | 0.00 | 0.00 | 69 | 1018.0 |
| 20260510005502 | 11 | 111 | 4.8 | 8.0 | 0.00 | 0.00 | 0.00 | 68 | 1018.1 |
| 20260510005002 | 11 | 77 | 6.4 | 9.7 | 0.00 | 0.00 | 0.00 | 68 | 1018.3 |
| 20260510004502 | 11 | 22 | 3.2 | 8.0 | 0.00 | 0.00 | 0.00 | 68 | 1018.0 |
| 20260510004002 | 11 | 18 | 1.6 | 9.7 | 0.00 | 0.00 | 0.00 | 67 | 1018.0 |
| 20260510003502 | 11 | 58 | 4.8 | 6.4 | 0.00 | 0.00 | 0.00 | 67 | 1018.0 |
| 20260510003003 | 11 | 14 | 1.6 | 4.8 | 0.00 | 0.00 | 0.00 | 66 | 1018.0 |
| 20260510002502 | 11 | 60 | 4.8 | 8.0 | 0.00 | 0.00 | 0.00 | 65 | 1017.9 |
| 20260510002002 | 11 | 42 | 3.2 | 6.4 | 0.00 | 0.00 | 0.00 | 64 | 1018.2 |
| 20260510001502 | 12 | 273 | 1.6 | 6.4 | 0.00 | 0.00 | 0.00 | 63 | 1018.1 |
| 20260510001003 | 12 | 23 | 1.6 | 6.4 | 0.00 | 0.00 | 0.00 | 63 | 1018.2 |
| 20260510000502 | 12 | 3 | 3.2 | 6.4 | 0.00 | 0.00 | 0.00 | 62 | 1018.0 |
| 20260510000002 | 12 | 17 | 3.2 | 9.7 | 0.00 | 0.00 | 0.00 | 61 | 1018.1 |
| 20260509235503 | 12 | 148 | 3.2 | 8.0 | 0.00 | 0.00 | 0.00 | 60 | 1018.0 |
| 20260509235002 | 12 | 15 | 4.8 | 8.0 | 0.00 | 0.00 | 0.00 | 60 | 1018.0 |
| 20260509234503 | 12 | 345 | 3.2 | 8.0 | 0.00 | 0.00 | 0.00 | 59 | 1017.9 |
| 20260509234002 | 12 | 37 | 4.8 | 8.0 | 0.00 | 0.00 | 0.00 | 61 | 1017.9 |
| 20260509233502 | 12 | 283 | 1.6 | 3.2 | 0.00 | 0.00 | 0.00 | 63 | 1017.9 |
| 20260509233002 | 12 | 293 | 1.6 | 3.2 | 0.00 | 0.00 | 0.00 | 62 | 1017.8 |
| 20260509232502 | 12 | 34 | 4.8 | 6.4 | 0.00 | 0.00 | 0.00 | 62 | 1017.9 |
| 20260509232002 | 12 | 123 | 3.2 | 9.7 | 0.00 | 0.00 | 0.00 | 62 | 1018.0 |
| 20260509231502 | 12 | 310 | 0.0 | 6.4 | 0.00 | 0.00 | 0.00 | 61 | 1018.1 |
| 20260509231002 | 12 | 109 | 4.8 | 9.7 | 0.00 | 0.00 | 0.00 | 61 | 1018.0 |
| 20260509230502 | 12 | 22 | 4.8 | 6.4 | 0.00 | 0.00 | 0.00 | 61 | 1018.0 |
| 20260509230002 | 12 | 118 | 6.4 | 8.0 | 0.00 | 0.00 | 0.00 | 60 | 1018.0 |
| 20260509225502 | 12 | 99 | 3.2 | 9.7 | 0.00 | 0.00 | 0.00 | 60 | 1018.0 |
| 20260509225003 | 12 | 41 | 4.8 | 6.4 | 0.00 | 0.00 | 0.00 | 59 | 1018.0 |
| 20260509224502 | 13 | 342 | 1.6 | 4.8 | 0.00 | 0.00 | 0.00 | 58 | 1018.0 |
| 20260509224002 | 13 | 17 | 3.2 | 8.0 | 0.00 | 0.00 | 0.00 | 58 | 1018.0 |
| 20260509223502 | 13 | 23 | 3.2 | 8.0 | 0.00 | 0.00 | 0.00 | 57 | 1017.8 |
| 20260509223005 | 13 | 303 | 1.6 | 8.0 | 0.00 | 0.00 | 0.00 | 57 | 1018.0 |
| 20260509222502 | 13 | 294 | 3.2 | 8.0 | 0.00 | 0.00 | 0.00 | 56 | 1018.0 |
| 20260509222002 | 13 | 294 | 1.6 | 4.8 | 0.00 | 0.00 | 0.00 | 54 | 1018.0 |
| 20260509221503 | 13 | 293 | 1.6 | 8.0 | 0.00 | 0.00 | 0.00 | 54 | 1018.0 |
| 20260509221002 | 13 | 337 | 1.6 | 9.7 | 0.00 | 0.00 | 0.00 | 53 | 1018.0 |
| 20260509220502 | 13 | 282 | 4.8 | 8.0 | 0.00 | 0.00 | 0.00 | 53 | 1017.9 |
| 20260509220002 | 13 | 112 | 1.6 | 4.8 | 0.00 | 0.00 | 0.00 | 52 | 1018.0 |
| 20260509215502 | 13 | 293 | 0.0 | 0.0 | 0.00 | 0.00 | 0.00 | 52 | 1018.1 |
| 20260509215002 | 13 | 303 | 1.6 | 4.8 | 0.00 | 0.00 | 0.00 | 51 | 1018.0 |
| 20260509214503 | 13 | 184 | 1.6 | 4.8 | 0.00 | 0.00 | 0.00 | 51 | 1018.0 |
| 20260509214002 | 13 | 350 | 3.2 | 9.7 | 0.00 | 0.00 | 0.00 | 50 | 1018.3 |
| 20260509213502 | 13 | 299 | 1.6 | 4.8 | 0.00 | 0.00 | 0.00 | 50 | 1018.0 |
| 20260509213004 | 13 | 22 | 1.6 | 4.8 | 0.00 | 0.00 | 0.00 | 49 | 1018.0 |
| 20260509212502 | 13 | 346 | 1.6 | 4.8 | 0.00 | 0.00 | 0.00 | 49 | 1018.0 |
| 20260509212003 | 13 | 24 | 4.8 | 8.0 | 0.00 | 0.00 | 0.00 | 48 | 1017.9 |
| 20260509211502 | 14 | 282 | 0.0 | 6.4 | 0.00 | 0.00 | 0.00 | 48 | 1017.8 |
| 20260509211002 | 14 | 124 | 3.2 | 6.4 | 0.00 | 0.00 | 0.00 | 47 | 1017.8 |
| 20260509210503 | 14 | 58 | 1.6 | 4.8 | 0.00 | 0.00 | 0.00 | 47 | 1017.7 |
| 20260509210002 | 14 | 88 | 3.2 | 6.4 | 0.00 | 0.00 | 0.00 | 46 | 1017.6 |
| 20260509205502 | 14 | 318 | 3.2 | 6.4 | 0.00 | 0.00 | 0.00 | 46 | 1017.7 |
| 20260509205002 | 14 | 304 | 1.6 | 6.4 | 0.00 | 0.00 | 0.00 | 46 | 1017.6 |
| 20260509204502 | 14 | 300 | 1.6 | 6.4 | 0.00 | 0.00 | 0.00 | 46 | 1017.7 |
| 20260509204002 | 14 | 108 | 3.2 | 6.4 | 0.00 | 0.00 | 0.00 | 45 | 1017.6 |
| 20260509203503 | 15 | 62 | 6.4 | 8.0 | 0.00 | 0.00 | 0.00 | 45 | 1017.7 |
| 20260509203004 | 15 | 43 | 3.2 | 9.7 | 0.00 | 0.00 | 0.00 | 44 | 1017.6 |
| 20260509202502 | 15 | 94 | 4.8 | 8.0 | 0.00 | 0.00 | 0.00 | 44 | 1017.7 |
| 20260509202002 | 15 | 98 | 4.8 | 16.1 | 0.00 | 0.00 | 0.00 | 43 | 1017.5 |
| 20260509201502 | 15 | 55 | 3.2 | 14.5 | 0.00 | 0.00 | 0.00 | 42 | 1017.6 |
| 20260509201002 | 15 | 135 | 8.0 | 11.3 | 0.00 | 0.00 | 0.00 | 41 | 1017.8 |
| 20260509200502 | 15 | 288 | 0.0 | 3.2 | 0.00 | 0.00 | 0.00 | 41 | 1017.5 |
| 20260509200002 | 15 | 72 | 4.8 | 8.0 | 0.00 | 0.00 | 0.00 | 41 | 1017.5 |
| 20260509195502 | 15 | 109 | 1.6 | 4.8 | 0.00 | 0.00 | 0.00 | 40 | 1017.5 |
| 20260509195002 | 15 | 330 | 1.6 | 9.7 | 0.00 | 0.00 | 0.00 | 40 | 1017.4 |
| 20260509194502 | 15 | 279 | 1.6 | 4.8 | 0.00 | 0.00 | 0.00 | 39 | 1017.5 |
| 20260509194002 | 15 | 338 | 1.6 | 4.8 | 0.00 | 0.00 | 0.00 | 39 | 1017.4 |
| 20260509193502 | 15 | 65 | 4.8 | 9.7 | 0.00 | 0.00 | 0.00 | 39 | 1017.4 |
| 20260509193004 | 15 | 93 | 6.4 | 9.7 | 0.00 | 0.00 | 0.00 | 39 | 1017.2 |
| 20260509192502 | 15 | 333 | 3.2 | 8.0 | 0.00 | 0.00 | 0.00 | 39 | 1017.2 |
| 20260509192002 | 15 | 94 | 4.8 | 16.1 | 0.00 | 0.00 | 0.00 | 39 | 1017.2 |
| 20260509191502 | 16 | 188 | 1.6 | 4.8 | 0.00 | 0.00 | 0.00 | 41 | 1017.0 |
| 20260509191002 | 16 | 21 | 1.6 | 8.0 | 0.00 | 0.00 | 0.00 | 40 | 1016.8 |
| 20260509190502 | 16 | 115 | 3.2 | 8.0 | 0.00 | 0.00 | 0.00 | 40 | 1017.2 |
| 20260509190003 | 16 | 65 | 11.3 | 14.5 | 0.00 | 0.00 | 0.00 | 39 | 1017.1 |
| 20260509185503 | 16 | 27 | 6.4 | 11.3 | 0.00 | 0.00 | 0.00 | 39 | 1017.1 |
| 20260509185002 | 16 | 32 | 8.0 | 11.3 | 0.00 | 0.00 | 0.00 | 39 | 1017.0 |
| 20260509184502 | 16 | 24 | 6.4 | 11.3 | 0.00 | 0.00 | 0.00 | 39 | 1017.2 |
| 20260509184003 | 16 | 144 | 6.4 | 11.3 | 0.00 | 0.00 | 0.00 | 40 | 1017.0 |
| 20260509183502 | 16 | 30 | 4.8 | 6.4 | 0.00 | 0.00 | 0.00 | 40 | 1016.8 |
| 20260509183002 | 16 | 44 | 6.4 | 11.3 | 0.00 | 0.00 | 0.00 | 39 | 1016.8 |
| 20260509182502 | 17 | 118 | 6.4 | 14.5 | 0.00 | 0.00 | 0.00 | 39 | 1016.7 |
| 20260509182002 | 17 | 183 | 6.4 | 11.3 | 0.00 | 0.00 | 0.00 | 39 | 1016.8 |
| 20260509181502 | 17 | 321 | 3.2 | 11.3 | 0.00 | 0.00 | 0.00 | 39 | 1017.1 |
| 20260509181002 | 17 | 48 | 4.8 | 8.0 | 0.00 | 0.00 | 0.00 | 39 | 1016.8 |
| 20260509180502 | 17 | 183 | 3.2 | 11.3 | 0.00 | 0.00 | 0.00 | 39 | 1017.1 |
| 20260509180002 | 17 | 163 | 8.0 | 14.5 | 0.00 | 0.00 | 0.00 | 38 | 1016.6 |
| 20260509175502 | 17 | 72 | 8.0 | 14.5 | 0.00 | 0.00 | 0.00 | 38 | 1016.5 |
| 20260509175002 | 17 | 356 | 3.2 | 16.1 | 0.00 | 0.00 | 0.00 | 38 | 1016.5 |
| 20260509174502 | 17 | 169 | 12.9 | 20.9 | 0.00 | 0.00 | 0.00 | 37 | 1016.3 |
| 20260509174002 | 17 | 98 | 8.0 | 11.3 | 0.00 | 0.00 | 0.00 | 37 | 1016.4 |
| 20260509173502 | 18 | 65 | 6.4 | 17.7 | 0.00 | 0.00 | 0.00 | 37 | 1016.7 |
| 20260509173002 | 18 | 52 | 8.0 | 9.7 | 0.00 | 0.00 | 0.00 | 37 | 1016.4 |
| 20260509172502 | 18 | 72 | 4.8 | 11.3 | 0.00 | 0.00 | 0.00 | 37 | 1016.5 |
| 20260509172002 | 18 | 4 | 6.4 | 9.7 | 0.00 | 0.00 | 0.00 | 37 | 1016.6 |
| 20260509171502 | 18 | 271 | 3.2 | 9.7 | 0.00 | 0.00 | 0.00 | 36 | 1016.5 |
| 20260509171002 | 18 | 120 | 6.4 | 9.7 | 0.00 | 0.00 | 0.00 | 34 | 1016.5 |
| 20260509170502 | 19 | 99 | 8.0 | 11.3 | 0.00 | 0.00 | 0.00 | 33 | 1016.7 |
| 20260509170002 | 19 | 90 | 4.8 | 16.1 | 0.00 | 0.00 | 0.00 | 33 | 1016.5 |
| 20260509165502 | 19 | 138 | 9.7 | 16.1 | 0.00 | 0.00 | 0.00 | 32 | 1016.5 |
| 20260509165002 | 19 | 137 | 4.8 | 14.5 | 0.00 | 0.00 | 0.00 | 34 | 1016.5 |
| 20260509164502 | 20 | 138 | 3.2 | 9.7 | 0.00 | 0.00 | 0.00 | 34 | 1016.6 |
| 20260509164002 | 20 | 83 | 8.0 | 9.7 | 0.00 | 0.00 | 0.00 | 33 | 1016.6 |
| 20260509163502 | 20 | 187 | 3.2 | 8.0 | 0.00 | 0.00 | 0.00 | 34 | 1016.6 |
| 20260509163002 | 20 | 67 | 8.0 | 9.7 | 0.00 | 0.00 | 0.00 | 34 | 1016.4 |
| 20260509162502 | 20 | 203 | 4.8 | 16.1 | 0.00 | 0.00 | 0.00 | 34 | 1016.3 |
| 20260509162003 | 20 | 43 | 4.8 | 8.0 | 0.00 | 0.00 | 0.00 | 34 | 1016.6 |
| 20260509161502 | 20 | 175 | 1.6 | 8.0 | 0.00 | 0.00 | 0.00 | 36 | 1016.5 |
| 20260509161003 | 20 | 86 | 6.4 | 14.5 | 0.00 | 0.00 | 0.00 | 35 | 1016.6 |
| 20260509160502 | 20 | 98 | 4.8 | 14.5 | 0.00 | 0.00 | 0.00 | 35 | 1016.7 |
| 20260509160002 | 20 | 51 | 6.4 | 9.7 | 0.00 | 0.00 | 0.00 | 35 | 1016.6 |
| 20260509155502 | 20 | 91 | 8.0 | 9.7 | 0.00 | 0.00 | 0.00 | 33 | 1016.7 |
| 20260509155002 | 20 | 154 | 4.8 | 8.0 | 0.00 | 0.00 | 0.00 | 35 | 1016.6 |
| 20260509154502 | 21 | 33 | 4.8 | 8.0 | 0.00 | 0.00 | 0.00 | 33 | 1016.8 |
| 20260509154002 | 20 | 100 | 4.8 | 16.1 | 0.00 | 0.00 | 0.00 | 33 | 1016.7 |
| 20260509153503 | 20 | 167 | 6.4 | 11.3 | 0.00 | 0.00 | 0.00 | 35 | 1016.8 |
| 20260509153002 | 20 | 63 | 6.4 | 16.1 | 0.00 | 0.00 | 0.00 | 34 | 1016.8 |
| 20260509152503 | 21 | 107 | 6.4 | 9.7 | 0.00 | 0.00 | 0.00 | 34 | 1016.6 |
| 20260509152002 | 21 | 96 | 4.8 | 14.5 | 0.00 | 0.00 | 0.00 | 32 | 1016.7 |
| 20260509151502 | 20 | 73 | 4.8 | 9.7 | 0.00 | 0.00 | 0.00 | 33 | 1017.0 |
| 20260509151002 | 20 | 275 | 4.8 | 14.5 | 0.00 | 0.00 | 0.00 | 31 | 1017.1 |
| 20260509150502 | 20 | 52 | 4.8 | 17.7 | 0.00 | 0.00 | 0.00 | 33 | 1017.0 |
| 20260509150002 | 20 | 93 | 11.3 | 16.1 | 0.00 | 0.00 | 0.00 | 33 | 1016.8 |
| 20260509145502 | 21 | 188 | 8.0 | 16.1 | 0.00 | 0.00 | 0.00 | 32 | 1016.8 |
| 20260509145002 | 21 | 80 | 8.0 | 19.3 | 0.00 | 0.00 | 0.00 | 32 | 1016.6 |
| 20260509144502 | 21 | 102 | 3.2 | 16.1 | 0.00 | 0.00 | 0.00 | 34 | 1016.7 |
| 20260509144002 | 21 | 78 | 3.2 | 9.7 | 0.00 | 0.00 | 0.00 | 34 | 1016.7 |
| 20260509143502 | 21 | 24 | 6.4 | 11.3 | 0.00 | 0.00 | 0.00 | 33 | 1016.7 |
| 20260509143002 | 21 | 78 | 6.4 | 9.7 | 0.00 | 0.00 | 0.00 | 33 | 1016.6 |
| 20260509142502 | 21 | 18 | 8.0 | 14.5 | 0.00 | 0.00 | 0.00 | 33 | 1016.5 |
| 20260509142002 | 21 | 174 | 9.7 | 19.3 | 0.00 | 0.00 | 0.00 | 32 | 1016.2 |
| 20260509141502 | 21 | 267 | 3.2 | 11.3 | 0.00 | 0.00 | 0.00 | 33 | 1016.4 |
| 20260509141002 | 21 | 280 | 1.6 | 11.3 | 0.00 | 0.00 | 0.00 | 35 | 1016.3 |